Flag for Lithuania Weather past 2 weeks in Vilnius, Lithuania

Now
77 °F

Passing clouds.


Feels Like: 78 °F
Forecast: 60 / 83 °F
Wind: 9 mph from Southeast

Location: Vilnius Airport

Current Time: Sep 1, 2015 at 11:58:32 AM

Latest Report: Sep 1, 2015 at 11:20 AM


Visibility: N/A

Pressure: 29.80 "Hg

Humidity: 44%

Dew point: 54 °F

Location of VilniusLocation

Historic Weather in Vilnius — Graph

°F

Vilnius temperature yesterday

Maximum temperature yesterday: 77 °F (at 3:20 PM)
Minimum temperature yesterday: 55 °F (at 2:20 AM)
Average temperature yesterday: 66 °F

Past Weeks' High & Low Weather Summary

 TemperatureHumidityPressure
High88 °F (Aug 25, 2:50 PM)100% (Aug 26, 5:50 AM)30.45 "Hg (Aug 26, 5:50 AM)
Low43 °F (Aug 30, 5:20 AM)22% (Aug 25, 2:50 PM)29.83 "Hg (Sep 1, 10:20 AM)
Average64 °F60%30.15 "Hg
* Reported Aug 17 10:20 AM — Sep 1 10:20 AM, Vilnius, Weather by CustomWeather, © 2015

Note: Actual official high and low records may vary slightly from our data, if they occured in-between our weather recording intervals... More about our weather records

Advertising

Vilnius weather history for previous 24 hours

 ConditionsComfort  
Time TempWeatherWind HumidityBarometerVisibility
10:20 AM
Tue, Sep 1
72 °FSunny.9 mph50%29.83 "Hg10 mi
9:50 AM70 °FSunny.12 mph53%29.86 "Hg10 mi
9:20 AM68 °FSunny.10 mph56%29.86 "Hg10 mi
8:50 AM68 °FSunny.13 mph56%29.86 "Hg10 mi
8:20 AM66 °FSunny.10 mph56%29.86 "Hg10 mi
7:50 AM63 °FSunny.8 mph64%29.89 "Hg10 mi
6:20 AM57 °FClear.7 mph72%29.89 "Hg10 mi
5:50 AM59 °FClear.7 mph63%29.92 "Hg10 mi
5:20 AM59 °FClear.6 mph63%29.92 "Hg10 mi
4:50 AM59 °FClear.7 mph63%29.92 "Hg10 mi
4:20 AM59 °FClear.7 mph63%29.95 "Hg10 mi
3:50 AM61 °FClear.6 mph59%29.95 "Hg10 mi
3:20 AM63 °FPassing clouds.3 mph52%29.95 "HgN/A
2:50 AM64 °FClear.6 mph52%29.95 "Hg10 mi
2:20 AM63 °FClear.8 mph59%29.98 "Hg10 mi
1:50 AM63 °FClear.7 mph56%29.98 "Hg10 mi
1:20 AM63 °FClear.1 mph56%29.98 "Hg10 mi
12:20 AM63 °FPassing clouds.1 mph56%30.01 "HgN/A
11:50 PM
Mon, Aug 31
61 °FClear.1 mph59%30.01 "Hg10 mi
11:20 PM61 °FClear.No wind59%30.01 "Hg10 mi
10:50 PM61 °FClear.No wind55%30.01 "Hg10 mi
10:20 PM63 °FClear.2 mph52%30.01 "Hg10 mi
9:50 PM63 °FClear.1 mph52%30.01 "Hg10 mi
9:20 PM63 °FClear.3 mph52%30.01 "Hg10 mi
8:50 PM66 °FSunny.5 mph43%30.04 "Hg10 mi
8:20 PM68 °FSunny.6 mph43%30.04 "Hg10 mi
7:50 PM70 °FSunny.6 mph43%30.04 "Hg10 mi
7:20 PM72 °FSunny.3 mph50%30.01 "Hg10 mi
6:50 PM75 °FSunny.3 mph44%30.04 "Hg10 mi
6:20 PM75 °FSunny.2 mph41%30.04 "Hg10 mi
5:50 PM75 °FSunny.3 mph39%30.04 "Hg10 mi
5:20 PM77 °FSunny.2 mph36%30.04 "Hg10 mi
4:50 PM77 °FSunny.No wind36%30.07 "Hg10 mi
4:20 PM75 °FSunny.3 mph41%30.07 "Hg10 mi
3:50 PM77 °FPassing clouds.6 mph39%30.07 "HgN/A
3:20 PM77 °FSunny.2 mph39%30.07 "Hg10 mi
2:50 PM75 °FSunny.1 mph41%30.07 "Hg10 mi
2:20 PM75 °FSunny.3 mph41%30.07 "Hg10 mi
1:50 PM73 °FSunny.2 mph44%30.07 "Hg10 mi
1:20 PM73 °FSunny.1 mph44%30.07 "Hg10 mi
12:50 PM73 °FSunny.3 mph44%30.07 "Hg10 mi
12:20 PM72 °FPassing clouds.3 mph47%30.09 "HgN/A
11:50 AM72 °FPassing clouds.5 mph47%30.09 "HgN/A
11:20 AM70 °FPassing clouds.5 mph50%30.09 "HgN/A
Weather by CustomWeather, © 2015

See weather overviewHow to use our weather pages